Regional Weather Roundup
Issued by NWS

Home | Current Version | Previous Version | Text Only | Print | Product List | Glossary On
Versions: 1 2 3 4 5 6 7 8 9 10 11 12 13 14 15 16 17 18 19 20 21 22 23 24 25 26 27 28 29 30 31 32 33 34 35 36 37 38 39 40 41 42 43 44 45 46 47 48 49 50
433
ASUS46 KPQR 130810
RWROR

OREGON REGIONAL WEATHER ROUNDUP
NATIONAL WEATHER SERVICE PORTLAND OR
1200 AM PST SAT FEB 13 2016

NOTE: "FAIR" INDICATES FEW OR NO CLOUDS BELOW 12,000 FEET WITH
NO SIGNIFICANT WEATHER AND/OR OBSTRUCTIONS TO VISIBILITY.

ORZ001>013-130900-
NORTHWEST OREGON


CITY           SKY/WX    TMP DP  RH WIND       PRES   REMARKS
ASTORIA        LGT RAIN  50  44  80 SW15G28   30.24R
NEWPORT        MOCLDY    50  50 100 SW10      30.36R FOG
PORTLAND       MOCLDY    47  43  86 S8        30.29R
VANCOUVER WA   MOCLDY    48  43  82 S3        30.29R
SCAPPOOSE      PTCLDY    41  40  96 W5        30.27R
HILLSBORO      PTCLDY    40  38  93 CALM      30.28R
AURORA         PTCLDY    46  44  93 S9        30.31R
MCMINNVILLE    PTCLDY    44  40  85 SW3       30.31R
SALEM          PTCLDY    44  41  89 S8        30.31R
CORVALLIS      PTCLDY    45  41  87 SE7       30.34R
EUGENE         LGT RAIN  46  43  89 SW5       30.35R
$$

ORZ021-028-130900-
SOUTHWEST OREGON


CITY           SKY/WX    TMP DP  RH WIND       PRES   REMARKS
NORTH BEND     PTCLDY    45  45 100 S3        30.38R
BROOKINGS      CLEAR     47  46  97 W6        30.37R
ROSEBURG       CLOUDY    49  47  93 CALM      30.35R
SEXTON SUMMIT  PTCLDY    37  36  96 SW3       30.30S FOG
MEDFORD        CLEAR     46  42  86 CALM      30.33S
$$

ORZ014>016-041-130900-
COLUMBIA GORGE


CITY           SKY/WX    TMP DP  RH WIND       PRES   REMARKS
TROUTDALE      PTCLDY    46  43  89 CALM      30.30R
THE DALLES     CLEAR     42  40  92 SW5       30.24R
$$

ORZ029>031-041-044-049-050-061>064-502-503-505>511-130900-
EASTERN OREGON


CITY           SKY/WX    TMP DP  RH WIND       PRES   REMARKS
REDMOND        PTCLDY    35  30  82 S3        30.23S
BEND           CLEAR     41  28  60 CALM      30.23S
PRINEVILLE     PTCLDY    37  34  87 CALM      30.24S
KLAMATH FALLS  CLEAR     40  34  79 W5        30.29R
LAKEVIEW       CLOUDY    39  34  81 S7        30.28S WCI  34
HERMISTON      CLOUDY    47  41  80 SW9       30.20R
PENDLETON      CLOUDY    44  39  82 S8        30.20S
JOHN DAY       CLOUDY    42  40  95 SW3       30.21S
MEACHAM        LGT RAIN  35  33  92 CALM      30.18F
LA GRANDE      CLOUDY    39  34  81 SE8       30.20S WCI  34
BAKER CITY     CLOUDY    32  32 100 E3        30.20S FOG
BURNS          MOCLDY    29  26  89 S8        30.21R WCI  21
ROME             N/A     34  32  92 SW7       30.17R WCI  28
ONTARIO        PTCLDY    32  29  88 CALM      30.23R FOG
$$




USA.gov is the U.S. government's official web portal to all federal, state and local government web resources and services.